PROFILE

 METAR AND TAF INFORMATION
ADDS - METARS form results

(2155 UTC 10 December 2018)
http://aviationweather.gov/metar/data/
 
LFPG 102130Z 27005KT 9999 FEW024 BKN046 05/04 Q1027 NOSIG
LFPG 102100Z 31004KT 9999 SCT024 SCT046 06/04 Q1027 NOSIG
TAF AMD LFPG 101724Z 1018/1124 26008KT 9999 BKN040 TX07/1018Z TN02/1123Z BECMG 1023/1101 3000 BR SCT020 BKN030 PROB30 TEMPO 1103/1108 1200 BCFG SCT003 TEMPO 1108/1111 VRB03KT PROB30 TEMPO 1109/1111 BKN002 BECMG 1111/1113 09010KT 9999 NSW BKN012 BECMG 1113/1115 BKN020 BECMG 1116/1118 BKN008 BECMG 1121/1123 BKN002 

 AIRPORT MAP

 RUNWAY INFORMATION
Runway 08L Runway length 13829 ft Runway width 148 ft
Runway elevation 338 ft Runway displaced threshold 0 ft Runway heading 85
Runway 26R Runway length 13829 ft Runway width 148 ft
Runway elevation 318 ft Runway displaced threshold 1969 ft Runway heading 265
Runway 08R Runway length 8858 ft Runway width 197 ft
Runway elevation 336 ft Runway displaced threshold 0 ft Runway heading 85
Runway 26L Runway length 8858 ft Runway width 197 ft
Runway elevation 316 ft Runway displaced threshold 0 ft Runway heading 265
Runway 09L Runway length 8858 ft Runway width 197 ft
Runway elevation 378 ft Runway displaced threshold 0 ft Runway heading 85
Runway 27R Runway length 8858 ft Runway width 197 ft
Runway elevation 392 ft Runway displaced threshold 0 ft Runway heading 265
Runway 09R Runway length 13780 ft Runway width 148 ft
Runway elevation 370 ft Runway displaced threshold 0 ft Runway heading 86
Runway 27L Runway length 13780 ft Runway width 148 ft
Runway elevation 387 ft Runway displaced threshold 1969 ft Runway heading 266

 AIRPORT FREQUENCIES
Type APP Name DE GAULLE Frequency 121.15 MHZ
Type APP Name DE GAULLE Frequency 136.275 MHZ
Type ATIS Name DE GAULLE Frequency 127.125 MHZ
Type DEP Name DE GAULLE Frequency 124.35 MHZ
Type GND Name DE GAULLE Frequency 118.1 MHZ
Type GND Name DE GAULLE Frequency 121.6 MHZ
Type PFLT Name DE GAULLE Frequency 126.65 MHZ
Type TWR Name DE GAULLE Frequency 119.25 MHZ
Type TWR Name DE GAULLE Frequency 120.65 MHZ

 AIRPORT NEAR NAVIGATION AIDS
Type VOR-DME Name Charles de Gaulle Frequency 115350 KHZ
Type VOR-DME Name Charles de Gaulle Frequency 117050 KHZ